Location: Observatoire
(46.1952°N, 5.3391°E)
Time: 04:29:41
(UTC+01:00)

Altair - Pass Details

Date: 25 February 2026
Orbit: 1502 x 1682 km, 47.2° (Epoch: 7 March)

Event Time Altitude Azimuth Distance (km) Brightness Sun altitude
Rises 07:12:45 0° 281° (W) 4,647 - -2.9°
Exits shadow 07:13:44 - 281° (W) 4,329 9.1 -2.8°
Reaches altitude 10° 07:15:45 10° 281° (WNW) 3,676 8.8 -2.4°
Maximum altitude 07:25:04 89° 196° (SSW) 1,551 7.6 -0.8°
Drops below altitude 10° 07:34:42 10° 106° (ESE) 3,796 12.0 0.8°
Sets 07:37:50 0° 106° (ESE) 4,805 14.2 1.3°
